Voltar ao catálogo

GGSE 5

AtivoNavegaçãoLEO
NORAD 2834·PAYLOAD·🇺🇸 United States

Lançado May 31, 1967 de Vandenberg Space Force Base

Loading…

Próximas Passagens (próximas 24 horas)

TLE

AtualizadoSource: Space-Track

Época: Sep 14, 2026, 13:52 UTC

1 02834U 67053D   26257.57791730 -.00000010  00000-0  31727-4 0  9995
2 02834  69.9725 301.6431 0004576  94.1193 266.0436 13.96199772 18622

Acompanhe GGSE 5 em tempo real com AllMySat

Download on the App Store